• Em Portugal
  • Lista de países
  • Para 7 dias
  • Temperatura da água
  • Mapas de satélite
  • Mapa do tempo
  • Widgets de tempo
  • user-avatar
    Iniciar Sessão

    Previsão horária em Wartule

    Hoje, 23 Outubro, Terça-feira

    Tempo Temperatura Precipitação Vento Pressão Humidade
    00:00 +5°C° 0 mm 4 m/s 756 mmHg 87%
    01:00 +3°C° 0 mm 5 m/s 756 mmHg 88%
    02:00 +3°C° 0 mm 5 m/s 755 mmHg 87%
    03:00 +3°C° 0 mm 6 m/s 754 mmHg 87%
    04:00 +3°C° 0 mm 6 m/s 753 mmHg 86%
    05:00 +4°C° 0.5 mm 7 m/s 752 mmHg 85%
    06:00 +4°C° 0.5 mm 8 m/s 750 mmHg 83%
    07:00 +4°C° 0.5 mm 8 m/s 749 mmHg 81%
    08:00 +3°C° 1 mm 9 m/s 747 mmHg 81%
    09:00 +5°C° 1 mm 10 m/s 746 mmHg 80%
    10:00 +4°C° 1 mm 11 m/s 744 mmHg 79%
    11:00 +6°C° 1 mm 11 m/s 743 mmHg 81%
    12:00 +6°C° 1 mm 11 m/s 742 mmHg 82%
    13:00 +7°C° 1 mm 10 m/s 740 mmHg 83%
    14:00 +7°C° 0.9 mm 10 m/s 740 mmHg 80%
    15:00 +8°C° 0.9 mm 9 m/s 739 mmHg 77%
    16:00 +9°C° 0.9 mm 8 m/s 738 mmHg 74%
    17:00 +9°C° 0.1 mm 8 m/s 738 mmHg 75%
    18:00 +7°C° 0.1 mm 8 m/s 738 mmHg 75%
    19:00 +7°C° 0.1 mm 8 m/s 737 mmHg 75%
    20:00 +6°C° 0.1 mm 8 m/s 737 mmHg 74%
    21:00 +6°C° 0.1 mm 7 m/s 736 mmHg 74%
    22:00 +6°C° 0.1 mm 7 m/s 736 mmHg 74%
    23:00 +6°C° 0.2 mm 8 m/s 736 mmHg 71%

    Amanhã, 24 Outubro, Quarta-feira

    Tempo Temperatura Precipitação Vento Pressão Humidade
    00:00 +5°C° 0.2 mm 8 m/s 735 mmHg 69%
    01:00 +5°C° 0.2 mm 8 m/s 735 mmHg 66%
    02:00 +5°C° 0.4 mm 9 m/s 735 mmHg 65%
    03:00 +5°C° 0.4 mm 9 m/s 735 mmHg 64%
    04:00 +3°C° 0.4 mm 10 m/s 736 mmHg 63%
    05:00 +3°C° 0.1 mm 10 m/s 737 mmHg 61%
    06:00 +2°C° 0.1 mm 9 m/s 737 mmHg 59%
    07:00 +2°C° 0.1 mm 9 m/s 738 mmHg 57%
    08:00 +2°C° 0.1 mm 10 m/s 739 mmHg 57%
    09:00 +3°C° 0.1 mm 11 m/s 739 mmHg 57%
    10:00 +4°C° 0.1 mm 12 m/s 740 mmHg 56%
    11:00 +4°C° 0.2 mm 13 m/s 740 mmHg 57%
    12:00 +4°C° 0.2 mm 13 m/s 741 mmHg 57%
    13:00 +4°C° 0.2 mm 13 m/s 741 mmHg 58%
    14:00 +4°C° 0.1 mm 12 m/s 742 mmHg 57%
    15:00 +4°C° 0.1 mm 12 m/s 743 mmHg 57%
    16:00 +4°C° 0.1 mm 11 m/s 744 mmHg 57%
    17:00 +5°C° 0 mm 10 m/s 745 mmHg 58%
    18:00 +5°C° 0 mm 10 m/s 745 mmHg 59%
    19:00 +5°C° 0 mm 9 m/s 746 mmHg 60%
    20:00 +4°C° 0 mm 8 m/s 747 mmHg 62%
    21:00 +4°C° 0 mm 7 m/s 747 mmHg 64%
    22:00 +4°C° 0 mm 6 m/s 747 mmHg 66%
    23:00 +3°C° 0 mm 6 m/s 747 mmHg 68%

    Depois de amanhã, 25 Outubro, Quinta-feira

    Tempo Temperatura Precipitação Vento Pressão Humidade
    00:00 +3°C° 0 mm 5 m/s 747 mmHg 70%
    01:00 +2°C° 0 mm 5 m/s 747 mmHg 72%
    02:00 +2°C° 0 mm 5 m/s 747 mmHg 74%
    03:00 +2°C° 0 mm 5 m/s 746 mmHg 75%
    04:00 +2°C° 0 mm 5 m/s 745 mmHg 77%
    05:00 +2°C° 0.6 mm 5 m/s 744 mmHg 80%
    06:00 +3°C° 0.6 mm 6 m/s 743 mmHg 84%
    07:00 +3°C° 0.6 mm 6 m/s 742 mmHg 87%
    08:00 +5°C° 0.8 mm 8 m/s 741 mmHg 82%
    09:00 +7°C° 0.8 mm 9 m/s 741 mmHg 76%
    10:00 +8°C° 0.8 mm 10 m/s 740 mmHg 70%
    11:00 +9°C° 0.1 mm 10 m/s 740 mmHg 68%
    12:00 +9°C° 0.1 mm 10 m/s 740 mmHg 65%
    13:00 +9°C° 0.1 mm 10 m/s 740 mmHg 63%
    14:00 +8°C° 0.1 mm 9 m/s 740 mmHg 65%
    15:00 +9°C° 0.1 mm 8 m/s 741 mmHg 67%
    16:00 +8°C° 0.1 mm 7 m/s 741 mmHg 68%
    17:00 +8°C° 0 mm 6 m/s 742 mmHg 71%
    18:00 +7°C° 0 mm 6 m/s 743 mmHg 74%
    19:00 +7°C° 0 mm 5 m/s 743 mmHg 77%
    20:00 +6°C° 0 mm 5 m/s 743 mmHg 78%
    21:00 +6°C° 0 mm 5 m/s 744 mmHg 80%
    22:00 +6°C° 0 mm 5 m/s 744 mmHg 81%
    23:00 +6°C° 0 mm 5 m/s 744 mmHg 83%

    26 Outubro, Sexta-feira

    Tempo Temperatura Precipitação Vento Pressão Humidade
    00:00 +6°C° 0 mm 5 m/s 745 mmHg 84%
    01:00 +5°C° 0 mm 5 m/s 745 mmHg 86%
    02:00 +5°C° 0 mm 5 m/s 745 mmHg 87%
    03:00 +5°C° 0 mm 4 m/s 745 mmHg 89%
    04:00 +5°C° 0 mm 4 m/s 745 mmHg 91%
    05:00 +5°C° 0 mm 4 m/s 745 mmHg 90%
    06:00 +5°C° 0 mm 4 m/s 745 mmHg 89%
    07:00 +5°C° 0 mm 4 m/s 745 mmHg 89%
    08:00 +6°C° 0.1 mm 4 m/s 746 mmHg 85%
    09:00 +7°C° 0.1 mm 4 m/s 746 mmHg 81%
    10:00 +8°C° 0.1 mm 5 m/s 746 mmHg 77%
    11:00 +8°C° 0.1 mm 5 m/s 746 mmHg 74%
    12:00 +9°C° 0.1 mm 5 m/s 745 mmHg 70%
    13:00 +9°C° 0.1 mm 5 m/s 745 mmHg 66%
    14:00 +10°C° 0 mm 4 m/s 745 mmHg 68%
    15:00 +8°C° 0 mm 4 m/s 744 mmHg 71%
    16:00 +8°C° 0 mm 4 m/s 744 mmHg 73%
    17:00 +8°C° 0.1 mm 4 m/s 744 mmHg 76%
    18:00 +8°C° 0.1 mm 5 m/s 743 mmHg 80%
    19:00 +8°C° 0.1 mm 5 m/s 743 mmHg 83%
    20:00 +8°C° 0.2 mm 5 m/s 743 mmHg 84%
    21:00 +8°C° 0.2 mm 6 m/s 742 mmHg 85%
    22:00 +8°C° 0.2 mm 6 m/s 742 mmHg 86%
    23:00 +8°C° 0 mm 6 m/s 741 mmHg 86%

    27 Outubro, Sábado

    Tempo Temperatura Precipitação Vento Pressão Humidade
    00:00 +8°C° 0 mm 6 m/s 741 mmHg 85%
    01:00 +8°C° 0 mm 6 m/s 740 mmHg 84%
    02:00 +8°C° 0.1 mm 6 m/s 740 mmHg 85%
    03:00 +8°C° 0.1 mm 6 m/s 739 mmHg 85%
    04:00 +8°C° 0.1 mm 6 m/s 739 mmHg 86%
    05:00 +7°C° 0 mm 6 m/s 739 mmHg 85%
    06:00 +7°C° 0 mm 6 m/s 739 mmHg 84%
    07:00 +7°C° 0 mm 6 m/s 739 mmHg 82%
    08:00 +6°C° 0 mm 7 m/s 740 mmHg 76%
    09:00 +6°C° 0 mm 7 m/s 740 mmHg 70%
    10:00 +7°C° 0 mm 8 m/s 740 mmHg 64%
    11:00 +7°C° 0 mm 8 m/s 740 mmHg 62%
    12:00 +7°C° 0 mm 8 m/s 741 mmHg 60%
    13:00 +8°C° 0 mm 7 m/s 741 mmHg 58%
    14:00 +6°C° 0 mm 7 m/s 741 mmHg 59%
    15:00 +7°C° 0 mm 6 m/s 741 mmHg 60%
    16:00 +6°C° 0 mm 5 m/s 741 mmHg 61%
    17:00 +6°C° 0 mm 5 m/s 741 mmHg 62%
    18:00 +6°C° 0 mm 5 m/s 741 mmHg 62%
    19:00 +6°C° 0 mm 5 m/s 741 mmHg 63%
    20:00 +5°C° 0 mm 5 m/s 741 mmHg 63%
    21:00 +5°C° 0 mm 5 m/s 742 mmHg 64%
    22:00 +5°C° 0 mm 5 m/s 742 mmHg 64%
    23:00 +5°C° 0 mm 4 m/s 742 mmHg 65%

    28 Outubro, Domingo

    Tempo Temperatura Precipitação Vento Pressão Humidade
    00:00 +5°C° 0 mm 4 m/s 742 mmHg 66%
    01:00 +4°C° 0 mm 4 m/s 742 mmHg 67%
    02:00 +4°C° 0 mm 4 m/s 742 mmHg 69%
    03:00 +4°C° 0 mm 3 m/s 742 mmHg 71%
    04:00 +3°C° 0 mm 3 m/s 741 mmHg 73%
    05:00 +3°C° 0 mm 3 m/s 741 mmHg 75%
    06:00 +3°C° 0 mm 3 m/s 741 mmHg 76%
    07:00 +3°C° 0 mm 3 m/s 741 mmHg 78%
    08:00 +4°C° 0 mm 3 m/s 742 mmHg 75%
    09:00 +4°C° 0 mm 3 m/s 742 mmHg 73%
    10:00 +5°C° 0 mm 3 m/s 742 mmHg 71%
    11:00 +6°C° 0 mm 4 m/s 742 mmHg 70%
    12:00 +6°C° 0 mm 4 m/s 742 mmHg 69%
    13:00 +6°C° 0 mm 4 m/s 743 mmHg 68%
    14:00 +6°C° 0.1 mm 4 m/s 743 mmHg 68%
    15:00 +5°C° 0.1 mm 4 m/s 743 mmHg 68%
    16:00 +5°C° 0.1 mm 4 m/s 744 mmHg 68%
    17:00 +4°C° 0.1 mm 4 m/s 744 mmHg 70%
    18:00 +4°C° 0.1 mm 4 m/s 745 mmHg 71%
    19:00 +3°C° 0.1 mm 4 m/s 745 mmHg 73%
    20:00 +3°C° 0 mm 4 m/s 746 mmHg 73%
    21:00 +3°C° 0 mm 4 m/s 746 mmHg 73%
    22:00 +1°C° 0 mm 4 m/s 747 mmHg 73%
    23:00 +1°C° 0 mm 4 m/s 747 mmHg 72%

    29 Outubro, Segunda-feira

    Tempo Temperatura Precipitação Vento Pressão Humidade
    00:00 +1°C° 0 mm 4 m/s 747 mmHg 72%
    01:00 +1°C° 0 mm 5 m/s 748 mmHg 72%
    02:00 +1°C° 0 mm 5 m/s 748 mmHg 74%
    03:00 +1°C° 0 mm 5 m/s 748 mmHg 76%
    04:00 +2°C° 0 mm 5 m/s 748 mmHg 79%
    05:00 +2°C° 0 mm 5 m/s 749 mmHg 81%
    06:00 +2°C° 0 mm 5 m/s 749 mmHg 82%
    07:00 +1°C° 0 mm 4 m/s 750 mmHg 84%
    08:00 +3°C° 0 mm 4 m/s 750 mmHg 79%
    09:00 +4°C° 0 mm 4 m/s 751 mmHg 73%
    10:00 +5°C° 0 mm 4 m/s 751 mmHg 68%
    11:00 +6°C° 0 mm 4 m/s 751 mmHg 64%
    12:00 +6°C° 0 mm 4 m/s 751 mmHg 61%
    13:00 +7°C° 0 mm 4 m/s 752 mmHg 57%
    14:00 +7°C° 0 mm 3 m/s 752 mmHg 61%
    15:00 +5°C° 0 mm 3 m/s 751 mmHg 64%
    16:00 +5°C° 0 mm 2 m/s 751 mmHg 68%
    17:00 +5°C° 0 mm 2 m/s 751 mmHg 70%
    18:00 +5°C° 0 mm 2 m/s 752 mmHg 71%
    19:00 +4°C° 0 mm 2 m/s 752 mmHg 73%
    20:00 +4°C° 0 mm 2 m/s 752 mmHg 73%
    21:00 +4°C° 0 mm 2 m/s 752 mmHg 73%
    22:00 +5°C° 0 mm 1 m/s 752 mmHg 73%
    23:00 +5°C° 0.1 mm 1 m/s 752 mmHg 74%
    Mostrar mais